N4MRV-1 Weather Reports


Display with metric or nautical units.
time (UTC)temp
F
wind
direction
speed
MPH
gust
MPH
rain 1hr
in
rain 24hr
in
rain mn
in
humidity
%
barometer
mb
20260905211516 76 0.0 2.0 0.00 1.35 0.62 89 1011.0
20260905210016 75 0.0 2.0 0.00 1.50 0.62 89 1011.2
20260905204516 75 0.0 2.0 0.00 1.50 0.62 91 1011.1
20260905203016 75 315 1.0 4.0 0.00 1.50 0.62 89 1011.0
20260905201516 75 0.0 2.0 0.00 1.50 0.62 92 1011.0
20260905200016 75 0.0 2.0 0.00 1.50 0.62 94 1011.1
20260905194516 75 0.0 3.0 0.00 1.50 0.62 94 1011.3
20260905193015 75 0.0 1.0 0.00 1.50 0.62 94 1011.5
20260905191516 74 0.0 1.0 0.00 1.50 0.62 94 1011.9
20260905190016 74 0.0 1.0 0.00 1.50 0.62 93 1012.1
20260905184515 74 0.0 2.0 0.00 1.50 0.62 93 1012.2
20260905183016 74 0.0 1.0 0.00 1.50 0.62 93 1011.9
20260905181516 74 0.0 1.0 0.00 1.50 0.62 93 1011.8
20260905180016 74 203 1.0 2.0 0.01 1.50 0.62 93 1011.6
20260905174535 74 0.0 2.0 0.03 1.50 0.62 93 1011.9
20260905173015 74 0.0 1.0 0.53 1.50 0.62 92 1012.0
20260905171516 74 0.0 1.0 0.62 1.50 0.62 90 1012.3
20260905170036 75 180 1.0 6.0 0.61 1.49 0.61 88 1013.0
20260905164515 77 293 2.0 9.0 0.59 1.47 0.59 87 1013.8
20260905163015 79 315 1.0 4.0 0.09 0.97 0.09 86 1014.1
20260905161515 80 293 1.0 4.0 0.00 0.88 0.00 83 1013.0
20260905160015 80 0.0 2.0 0.00 0.88 0.00 84 1012.5
20260905154515 80 0.0 2.0 0.00 0.88 0.00 85 1012.6
20260905153015 80 0.0 3.0 0.00 0.88 0.00 84 1012.3
20260905151515 79 0.0 2.0 0.00 0.88 0.00 84 1012.6
20260905150015 79 293 1.0 3.0 0.00 0.88 0.00 84 1012.7
20260905144515 78 45 1.0 3.0 0.00 0.88 0.00 86 1012.5
20260905143015 77 0 1.0 3.0 0.00 0.88 0.00 92 1012.5
20260905141515 75 45 1.0 5.0 0.00 0.88 0.00 95 1012.5
20260905140017 74 68 1.0 3.0 0.00 0.88 0.00 96 1012.1
20260905134517 73 0.0 0.0 0.00 0.88 0.00 96 1012.1
20260905133017 73 0.0 0.0 0.00 0.88 0.00 96 1012.2
20260905131517 73 0.0 0.0 0.00 0.88 0.00 96 1012.1
20260905130017 72 0.0 0.0 0.00 0.88 0.00 96 1011.8
20260905124517 72 0.0 0.0 0.00 0.88 0.00 96 1011.8
20260905123017 71 0.0 0.0 0.00 0.88 0.00 96 1012.2
20260905121517 70 0.0 0.0 0.00 0.88 0.00 96 1012.0
20260905120017 69 0.0 0.0 0.00 0.88 0.00 96 1012.0
20260905114517 69 0.0 0.0 0.00 0.88 0.00 95 1012.0
20260905113017 69 0.0 0.0 0.00 0.88 0.00 95 1012.0
20260905111517 69 0.0 0.0 0.00 0.88 0.00 95 1011.7
20260905110016 69 0.0 0.0 0.00 0.88 0.00 95 1011.6
20260905104516 69 0.0 0.0 0.00 0.88 0.00 95 1011.5
20260905103017 69 0.0 0.0 0.00 0.88 0.00 95 1011.4
20260905101517 69 0.0 0.0 0.00 0.88 0.00 95 1011.2
20260905100017 70 0.0 0.0 0.00 0.88 0.00 95 1011.2
20260905094517 70 0.0 0.0 0.00 0.88 0.00 95 1010.9
20260905093016 70 0.0 0.0 0.00 0.88 0.00 95 1011.1
20260905091516 70 0.0 0.0 0.00 0.88 0.00 95 1011.0
20260905090017 70 0.0 0.0 0.00 0.88 0.00 95 1010.8
20260905084516 70 0.0 0.0 0.00 0.88 0.00 95 1011.0
20260905083016 70 0.0 0.0 0.00 0.88 0.00 95 1010.9
20260905081536 70 0.0 0.0 0.00 0.88 0.00 95 1011.2
20260905080016 70 0.0 0.0 0.00 0.88 0.00 95 1011.3
20260905074536 70 0.0 0.0 0.00 0.88 0.00 95 1011.4
20260905073016 71 0.0 0.0 0.00 0.88 0.00 95 1011.6
20260905071516 71 0.0 1.0 0.00 0.88 0.00 95 1011.8
20260905070016 71 0.0 2.0 0.00 0.88 0.00 95 1011.7
20260905064516 71 0.0 1.0 0.00 0.88 0.00 95 1011.7
20260905063016 71 0.0 1.0 0.00 0.88 0.00 95 1012.0
20260905061516 71 0.0 2.0 0.00 0.88 0.00 95 1012.1
20260905060016 71 0.0 2.0 0.00 0.88 0.00 95 1012.3
20260905054516 71 0.0 1.0 0.00 0.88 0.00 95 1012.8
20260905053016 71 0.0 2.0 0.00 0.88 0.00 95 1012.9
20260905051516 71 0.0 0.0 0.00 0.88 0.00 95 1013.1
20260905050016 71 0.0 0.0 0.00 0.88 0.00 95 1013.5
20260905044516 71 0.0 0.0 0.00 0.88 0.00 95 1013.7
20260905043016 72 0.0 0.0 0.00 0.88 0.00 95 1013.8
20260905041516 72 0.0 0.0 0.00 0.88 0.00 95 1013.9
20260905040016 72 0.0 0.0 0.00 0.88 0.88 95 1013.9
20260905034516 72 0.0 0.0 0.00 0.88 0.88 95 1014.0
20260905033017 72 0.0 0.0 0.00 0.88 0.88 95 1013.9
20260905031516 72 0.0 0.0 0.00 0.88 0.88 95 1013.8
20260905030017 71 0.0 0.0 0.00 0.88 0.88 95 1013.7
20260905024517 72 0.0 0.0 0.00 0.88 0.88 95 1013.8
20260905023016 72 0.0 0.0 0.00 0.88 0.88 94 1014.0
20260905021516 72 0.0 0.0 0.00 0.88 0.88 94 1014.0
20260905020016 72 0.0 0.0 0.00 0.88 0.88 94 1013.9
20260905014516 72 0.0 0.0 0.00 0.88 0.88 94 1013.8
20260905013016 72 0.0 0.0 0.00 0.88 0.88 94 1013.5
20260905011516 72 0.0 0.0 0.00 0.88 0.88 94 1012.9
20260905010016 72 0.0 0.0 0.00 0.88 0.88 94 1012.6
20260905004516 72 0.0 0.0 0.00 0.88 0.88 94 1012.9
20260905003016 72 0.0 2.0 0.00 0.88 0.88 94 1012.5
20260905001516 72 0.0 1.0 0.01 0.88 0.88 93 1012.7
20260905000036 73 0.0 1.0 0.01 0.88 0.88 93 1012.5
20260904234516 73 0.0 1.0 0.01 0.88 0.88 93 1012.6
20260904233016 73 248 1.0 4.0 0.01 0.88 0.88 93 1012.4
20260904231536 73 0.0 2.0 0.00 0.87 0.87 93 1012.6
20260904230036 73 0.0 2.0 0.00 0.87 0.87 92 1013.2
20260904224516 73 0.0 1.0 0.02 0.87 0.87 92 1013.6
20260904223016 73 0.0 3.0 0.07 0.87 0.87 91 1014.0
20260904221516 74 315 2.0 7.0 0.72 0.87 0.87 89 1014.5
20260904220036 74 0.0 3.0 0.87 0.87 0.87 87 1013.9
20260904214556 76 0 2.0 8.0 0.85 0.85 0.85 84 1013.1
20260904213016 79 293 5.0 26.0 0.80 0.80 0.80 79 1014.5